When you browse on this site, cookies collect data to enhance your experience and personalize the content and advertising you see.
Visit our Privacy Policy to learn more. By continuing to use the site, you agree to this use of cookies and data.
  • In Hungary
  • List of Countries
  • For 7 days
  • Water Temperature
  • Satellite Maps
  • Weather Map
  • News
  • Weather Widgets
  • user-avatar
    Login

    Hourly Weather Gweru

    Today, 19 January, Saturday

    Time Temperature Precipitation Wind Pressure Humidity
    00:00 +21°C° 0 mm 1 mps 641 mmHg 82%
    01:00 +20°C° 0 mm 1 mps 641 mmHg 84%
    02:00 +20°C° 0 mm 1 mps 641 mmHg 84%
    03:00 +20°C° 0 mm 1 mps 641 mmHg 85%
    04:00 +17°C° 0 mm 0 mps 641 mmHg 86%
    05:00 +17°C° 0 mm 0 mps 641 mmHg 86%
    06:00 +21°C° 0 mm 1 mps 641 mmHg 79%
    07:00 +23°C° 0 mm 1 mps 642 mmHg 71%
    08:00 +25°C° 0 mm 1 mps 643 mmHg 64%
    09:00 +27°C° 0 mm 1 mps 643 mmHg 55%
    10:00 +29°C° 0 mm 1 mps 644 mmHg 47%
    11:00 +32°C° 0 mm 1 mps 645 mmHg 38%
    12:00 +32°C° 0 mm 2 mps 644 mmHg 36%
    13:00 +33°C° 0 mm 3 mps 644 mmHg 35%
    14:00 +33°C° 0 mm 4 mps 643 mmHg 34%
    15:00 +33°C° 0 mm 4 mps 643 mmHg 37%
    16:00 +31°C° 0 mm 3 mps 643 mmHg 40%
    17:00 +30°C° 0 mm 3 mps 642 mmHg 44%
    18:00 +29°C° 0 mm 3 mps 642 mmHg 49%
    19:00 +27°C° 0 mm 3 mps 642 mmHg 54%
    20:00 +25°C° 0 mm 2 mps 642 mmHg 59%
    21:00 +24°C° 0.2 mm 3 mps 643 mmHg 64%
    22:00 +24°C° 0.2 mm 3 mps 643 mmHg 69%
    23:00 +22°C° 0.2 mm 4 mps 644 mmHg 73%

    Tomorrow, 20 January, Sunday

    Time Temperature Precipitation Wind Pressure Humidity
    00:00 +21°C° 0.1 mm 5 mps 644 mmHg 78%
    01:00 +21°C° 0.1 mm 5 mps 644 mmHg 82%
    02:00 +20°C° 0.1 mm 6 mps 643 mmHg 87%
    03:00 +20°C° 0.1 mm 6 mps 643 mmHg 87%
    04:00 +19°C° 0.1 mm 6 mps 644 mmHg 88%
    05:00 +19°C° 0.1 mm 6 mps 644 mmHg 88%
    06:00 +19°C° 0.1 mm 6 mps 644 mmHg 86%
    07:00 +19°C° 0.1 mm 6 mps 645 mmHg 85%
    08:00 +18°C° 0.1 mm 7 mps 645 mmHg 83%
    09:00 +19°C° 0.1 mm 6 mps 645 mmHg 82%
    10:00 +19°C° 0.1 mm 6 mps 645 mmHg 82%
    11:00 +19°C° 0.1 mm 6 mps 646 mmHg 82%
    12:00 +20°C° 0.1 mm 6 mps 645 mmHg 78%
    13:00 +20°C° 0.1 mm 7 mps 645 mmHg 75%
    14:00 +21°C° 0.1 mm 7 mps 645 mmHg 71%
    15:00 +20°C° 0.1 mm 6 mps 645 mmHg 73%
    16:00 +20°C° 0.1 mm 6 mps 644 mmHg 75%
    17:00 +19°C° 0.1 mm 6 mps 644 mmHg 78%
    18:00 +17°C° 0 mm 6 mps 645 mmHg 79%
    19:00 +17°C° 0 mm 6 mps 645 mmHg 81%
    20:00 +16°C° 0 mm 5 mps 645 mmHg 82%
    21:00 +16°C° 0 mm 5 mps 646 mmHg 82%
    22:00 +15°C° 0 mm 5 mps 646 mmHg 82%
    23:00 +15°C° 0 mm 5 mps 646 mmHg 82%

    Day after tomorrow, 21 January, Monday

    Time Temperature Precipitation Wind Pressure Humidity
    00:00 +14°C° 0 mm 5 mps 646 mmHg 83%
    01:00 +14°C° 0 mm 6 mps 645 mmHg 84%
    02:00 +13°C° 0 mm 6 mps 645 mmHg 85%
    03:00 +13°C° 0 mm 6 mps 645 mmHg 86%
    04:00 +13°C° 0 mm 5 mps 645 mmHg 87%
    05:00 +13°C° 0 mm 5 mps 645 mmHg 88%
    06:00 +13°C° 0 mm 5 mps 645 mmHg 86%
    07:00 +14°C° 0 mm 5 mps 645 mmHg 85%
    08:00 +14°C° 0 mm 5 mps 646 mmHg 84%
    09:00 +16°C° 0 mm 5 mps 646 mmHg 79%
    10:00 +17°C° 0 mm 5 mps 646 mmHg 75%
    11:00 +19°C° 0 mm 5 mps 646 mmHg 71%
    12:00 +20°C° 0 mm 5 mps 646 mmHg 67%
    13:00 +21°C° 0 mm 5 mps 645 mmHg 62%
    14:00 +22°C° 0 mm 5 mps 645 mmHg 58%
    15:00 +22°C° 0 mm 5 mps 644 mmHg 60%
    16:00 +21°C° 0 mm 5 mps 644 mmHg 62%
    17:00 +21°C° 0 mm 5 mps 643 mmHg 64%
    18:00 +19°C° 0 mm 4 mps 643 mmHg 70%
    19:00 +18°C° 0 mm 3 mps 643 mmHg 76%
    20:00 +16°C° 0 mm 2 mps 643 mmHg 82%
    21:00 +16°C° 0 mm 2 mps 643 mmHg 83%
    22:00 +16°C° 0 mm 1 mps 643 mmHg 84%
    23:00 +15°C° 0 mm 1 mps 643 mmHg 85%

    22 January, Tuesday

    Time Temperature Precipitation Wind Pressure Humidity
    00:00 +15°C° 0 mm 1 mps 643 mmHg 86%
    01:00 +15°C° 0 mm 1 mps 642 mmHg 87%
    02:00 +15°C° 0 mm 2 mps 642 mmHg 88%
    03:00 +15°C° 0 mm 2 mps 642 mmHg 89%
    04:00 +14°C° 0 mm 2 mps 642 mmHg 91%
    05:00 +14°C° 0 mm 2 mps 642 mmHg 92%
    06:00 +14°C° 0 mm 3 mps 642 mmHg 83%
    07:00 +17°C° 0 mm 4 mps 643 mmHg 74%
    08:00 +18°C° 0 mm 4 mps 644 mmHg 64%
    09:00 +19°C° 0 mm 5 mps 644 mmHg 62%
    10:00 +21°C° 0 mm 5 mps 644 mmHg 61%
    11:00 +22°C° 0 mm 5 mps 644 mmHg 59%
    12:00 +23°C° 0 mm 5 mps 644 mmHg 60%
    13:00 +23°C° 0 mm 5 mps 643 mmHg 61%
    14:00 +23°C° 0 mm 5 mps 643 mmHg 63%
    15:00 +22°C° 0 mm 5 mps 642 mmHg 65%
    16:00 +22°C° 0 mm 4 mps 642 mmHg 68%
    17:00 +21°C° 0 mm 4 mps 642 mmHg 71%
    18:00 +20°C° 0 mm 4 mps 642 mmHg 73%
    19:00 +20°C° 0 mm 3 mps 642 mmHg 76%
    20:00 +19°C° 0 mm 2 mps 642 mmHg 79%
    21:00 +19°C° 0.1 mm 3 mps 642 mmHg 82%
    22:00 +19°C° 0.1 mm 3 mps 642 mmHg 85%
    23:00 +19°C° 0.1 mm 4 mps 642 mmHg 87%

    23 January, Wednesday

    Time Temperature Precipitation Wind Pressure Humidity
    00:00 +19°C° 0.2 mm 4 mps 641 mmHg 89%
    01:00 +19°C° 0.2 mm 3 mps 641 mmHg 90%
    02:00 +19°C° 0.2 mm 3 mps 640 mmHg 92%
    03:00 +19°C° 0.3 mm 3 mps 640 mmHg 92%
    04:00 +19°C° 0.3 mm 3 mps 640 mmHg 93%
    05:00 +19°C° 0.3 mm 3 mps 640 mmHg 94%
    06:00 +19°C° 0.7 mm 4 mps 640 mmHg 92%
    07:00 +19°C° 0.7 mm 4 mps 641 mmHg 91%
    08:00 +19°C° 0.7 mm 5 mps 641 mmHg 90%
    09:00 +19°C° 3.4 mm 4 mps 641 mmHg 91%
    10:00 +19°C° 3.4 mm 4 mps 641 mmHg 92%
    11:00 +19°C° 3.4 mm 4 mps 641 mmHg 93%
    12:00 +19°C° 1.2 mm 4 mps 640 mmHg 93%
    13:00 +19°C° 1.2 mm 4 mps 640 mmHg 93%
    14:00 +19°C° 1.2 mm 4 mps 640 mmHg 92%
    15:00 +19°C° 1.3 mm 4 mps 640 mmHg 92%
    16:00 +20°C° 1.3 mm 3 mps 640 mmHg 91%
    17:00 +20°C° 1.3 mm 3 mps 640 mmHg 91%
    18:00 +20°C° 0.2 mm 3 mps 640 mmHg 93%
    19:00 +19°C° 0.2 mm 3 mps 640 mmHg 94%
    20:00 +19°C° 0.2 mm 3 mps 640 mmHg 96%
    21:00 +19°C° 0.1 mm 3 mps 640 mmHg 96%
    22:00 +19°C° 0.1 mm 3 mps 641 mmHg 96%
    23:00 +19°C° 0.1 mm 2 mps 641 mmHg 96%

    24 January, Thursday

    Time Temperature Precipitation Wind Pressure Humidity
    00:00 +19°C° 1.3 mm 3 mps 640 mmHg 96%
    01:00 +19°C° 1.3 mm 3 mps 640 mmHg 96%
    02:00 +19°C° 1.3 mm 3 mps 639 mmHg 96%
    03:00 +19°C° 0.7 mm 3 mps 639 mmHg 96%
    04:00 +19°C° 0.7 mm 3 mps 640 mmHg 96%
    05:00 +19°C° 0.7 mm 3 mps 640 mmHg 96%
    06:00 +19°C° 0.1 mm 3 mps 640 mmHg 95%
    07:00 +19°C° 0.1 mm 4 mps 641 mmHg 94%
    08:00 +20°C° 0.1 mm 4 mps 641 mmHg 93%
    09:00 +20°C° 1 mm 4 mps 641 mmHg 93%
    10:00 +20°C° 1 mm 4 mps 641 mmHg 93%
    11:00 +20°C° 1 mm 4 mps 641 mmHg 93%
    12:00 +20°C° 1 mm 4 mps 640 mmHg 91%
    13:00 +20°C° 1 mm 4 mps 640 mmHg 90%
    14:00 +20°C° 1 mm 4 mps 640 mmHg 89%
    15:00 +21°C° 0.1 mm 4 mps 640 mmHg 88%
    16:00 +21°C° 0.1 mm 5 mps 640 mmHg 87%
    17:00 +21°C° 0.1 mm 5 mps 640 mmHg 85%
    18:00 +20°C° 0.1 mm 5 mps 641 mmHg 88%
    19:00 +20°C° 0.1 mm 4 mps 641 mmHg 90%
    20:00 +19°C° 0.1 mm 4 mps 641 mmHg 93%
    21:00 +19°C° 0.1 mm 4 mps 642 mmHg 93%
    22:00 +19°C° 0.1 mm 5 mps 642 mmHg 93%
    23:00 +19°C° 0.1 mm 5 mps 642 mmHg 93%
    Show more